| time (UTC) | temp F | wind direction | speed MPH | gust MPH | rain 1hr in | rain 24hr in | rain mn in | humidity % | barometer mb |
| 20260509231332 | 86 | 236 | 16.0 | 18.0 | 0.00 | 0.00 | 0.00 | 33 | 1010.2 |
| 20260509230829 | 86 | 226 | 17.0 | 20.0 | 0.00 | 0.00 | 0.00 | 31 | 1010.3 |
| 20260509230326 | 87 | 242 | 13.0 | 15.0 | 0.00 | 0.00 | 0.00 | 31 | 1010.3 |
| 20260509225821 | 87 | 264 | 13.0 | 15.0 | 0.00 | 0.00 | 0.00 | 31 | 1010.1 |
| 20260509225318 | 87 | 245 | 16.0 | 23.0 | 0.00 | 0.00 | 0.00 | 30 | 1010.2 |
| 20260509224814 | 87 | 241 | 15.0 | 18.0 | 0.00 | 0.00 | 0.00 | 30 | 1010.2 |
| 20260509224311 | 87 | 238 | 15.0 | 16.0 | 0.00 | 0.00 | 0.00 | 29 | 1010.4 |
| 20260509223807 | 88 | 267 | 15.0 | 17.0 | 0.00 | 0.00 | 0.00 | 29 | 1010.3 |
| 20260509223304 | 88 | 272 | 14.0 | 17.0 | 0.00 | 0.00 | 0.00 | 28 | 1010.5 |
| 20260509222801 | 88 | 251 | 13.0 | 15.0 | 0.00 | 0.00 | 0.00 | 27 | 1010.6 |
| 20260509222256 | 88 | 252 | 15.0 | 18.0 | 0.00 | 0.00 | 0.00 | 27 | 1010.5 |
| 20260509221753 | 88 | 236 | 10.0 | 13.0 | 0.00 | 0.00 | 0.00 | 27 | 1010.5 |
| 20260509221249 | 88 | 223 | 13.0 | 15.0 | 0.00 | 0.00 | 0.00 | 27 | 1010.7 |
| 20260509220745 | 89 | 231 | 12.0 | 14.0 | 0.00 | 0.00 | 0.00 | 26 | 1010.7 |
| 20260509220242 | 89 | 223 | 11.0 | 14.0 | 0.00 | 0.00 | 0.00 | 25 | 1010.7 |
| 20260509215737 | 89 | 226 | 12.0 | 13.0 | 0.00 | 0.00 | 0.00 | 25 | 1010.9 |
| 20260509215234 | 89 | 256 | 15.0 | 17.0 | 0.00 | 0.00 | 0.00 | 25 | 1011.0 |
| 20260509214731 | 89 | 249 | 14.0 | 17.0 | 0.00 | 0.00 | 0.00 | 25 | 1010.9 |
| 20260509214228 | 90 | 228 | 12.0 | 15.0 | 0.00 | 0.00 | 0.00 | 24 | 1010.7 |
| 20260509213725 | 91 | 252 | 12.0 | 16.0 | 0.00 | 0.00 | 0.00 | 21 | 1010.9 |
| 20260509213220 | 89 | 255 | 9.0 | 10.0 | 0.00 | 0.00 | 0.00 | 25 | 1011.0 |
| 20260509212718 | 90 | 244 | 10.0 | 15.0 | 0.00 | 0.00 | 0.00 | 22 | 1011.1 |
| 20260509212215 | 90 | 248 | 12.0 | 14.0 | 0.00 | 0.00 | 0.00 | 22 | 1011.1 |
| 20260509211711 | 92 | 255 | 3.0 | 7.0 | 0.00 | 0.00 | 0.00 | 21 | 1011.2 |
| 20260509211208 | 94 | 231 | 0.0 | 0.0 | 0.00 | 0.00 | 0.00 | 13 | 1011.3 |
| 20260509210704 | 91 | 60 | 4.0 | 6.0 | 0.00 | 0.00 | 0.00 | 14 | 1011.1 |
| 20260509210202 | 94 | 96 | 6.0 | 9.0 | 0.00 | 0.00 | 0.00 | 14 | 1011.3 |
| 20260509205701 | 92 | 120 | 4.0 | 5.0 | 0.00 | 0.00 | 0.00 | 14 | 1011.4 |
| 20260509205201 | 94 | 123 | 3.0 | 3.0 | 0.00 | 0.00 | 0.00 | 13 | 1011.5 |
| 20260509204657 | 92 | 201 | 0.0 | 1.0 | 0.00 | 0.00 | 0.00 | 15 | 1011.4 |
| 20260509204154 | 90 | 122 | 1.0 | 2.0 | 0.00 | 0.00 | 0.00 | 15 | 1011.5 |
| 20260509203650 | 91 | 122 | 5.0 | 8.0 | 0.00 | 0.00 | 0.00 | 17 | 1011.5 |
| 20260509203148 | 92 | 50 | 3.0 | 6.0 | 0.00 | 0.00 | 0.00 | 16 | 1011.8 |
| 20260509202643 | 91 | 232 | 0.0 | 1.0 | 0.00 | 0.00 | 0.00 | 15 | 1011.9 |
| 20260509202138 | 90 | 162 | 2.0 | 3.0 | 0.00 | 0.00 | 0.00 | 16 | 1011.6 |
| 20260509201634 | 91 | 148 | 2.0 | 3.0 | 0.00 | 0.00 | 0.00 | 15 | 1011.7 |
| 20260509201132 | 91 | 197 | 3.0 | 3.0 | 0.00 | 0.00 | 0.00 | 15 | 1011.8 |
| 20260509200627 | 89 | 97 | 3.0 | 3.0 | 0.00 | 0.00 | 0.00 | 16 | 1011.8 |
| 20260509200123 | 91 | 151 | 1.0 | 2.0 | 0.00 | 0.00 | 0.00 | 16 | 1011.9 |
| 20260509195619 | 91 | 195 | 2.0 | 2.0 | 0.00 | 0.00 | 0.00 | 16 | 1011.9 |
| 20260509195114 | 88 | 177 | 2.0 | 2.0 | 0.00 | 0.00 | 0.00 | 16 | 1012.0 |
| 20260509194613 | 89 | 224 | 2.0 | 2.0 | 0.00 | 0.00 | 0.00 | 16 | 1012.0 |
| 20260509194111 | 90 | 189 | 4.0 | 5.0 | 0.00 | 0.00 | 0.00 | 16 | 1012.1 |
| 20260509193607 | 89 | 152 | 6.0 | 7.0 | 0.00 | 0.00 | 0.00 | 16 | 1012.1 |
| 20260509193103 | 90 | 164 | 5.0 | 7.0 | 0.00 | 0.00 | 0.00 | 16 | 1012.0 |
| 20260509192600 | 88 | 142 | 3.0 | 6.0 | 0.00 | 0.00 | 0.00 | 17 | 1012.5 |
| 20260509192055 | 88 | 193 | 5.0 | 6.0 | 0.00 | 0.00 | 0.00 | 17 | 1012.2 |
| 20260509191555 | 90 | 224 | 1.0 | 1.0 | 0.00 | 0.00 | 0.00 | 17 | 1012.4 |
| 20260509191051 | 90 | 208 | 3.0 | 3.0 | 0.00 | 0.00 | 0.00 | 16 | 1012.5 |
| 20260509190548 | 90 | 318 | 0.0 | 1.0 | 0.00 | 0.00 | 0.00 | 17 | 1012.4 |
| 20260509190046 | 89 | 201 | 2.0 | 2.0 | 0.00 | 0.00 | 0.00 | 17 | 1012.7 |
| 20260509185543 | 87 | 170 | 3.0 | 5.0 | 0.00 | 0.00 | 0.00 | 16 | 1012.8 |
| 20260509185039 | 87 | 22 | 3.0 | 5.0 | 0.00 | 0.00 | 0.00 | 17 | 1013.0 |
| 20260509184538 | 87 | 252 | 1.0 | 2.0 | 0.00 | 0.00 | 0.00 | 17 | 1012.6 |
| 20260509184033 | 88 | 235 | 5.0 | 6.0 | 0.00 | 0.00 | 0.00 | 16 | 1012.9 |
| 20260509183529 | 87 | 156 | 2.0 | 3.0 | 0.00 | 0.00 | 0.00 | 17 | 1012.9 |
| 20260509183025 | 86 | 249 | 0.0 | 1.0 | 0.00 | 0.00 | 0.00 | 16 | 1013.0 |
| 20260509182521 | 87 | 79 | 5.0 | 7.0 | 0.00 | 0.00 | 0.00 | 18 | 1012.8 |
| 20260509182019 | 86 | 148 | 5.0 | 6.0 | 0.00 | 0.00 | 0.00 | 16 | 1013.0 |
| 20260509181517 | 86 | 238 | 1.0 | 1.0 | 0.00 | 0.00 | 0.00 | 18 | 1012.9 |
| 20260509181014 | 87 | 208 | 3.0 | 3.0 | 0.00 | 0.00 | 0.00 | 16 | 1013.2 |
| 20260509180509 | 86 | 202 | 2.0 | 2.0 | 0.00 | 0.00 | 0.00 | 16 | 1012.9 |
| 20260509180008 | 86 | 183 | 1.0 | 1.0 | 0.00 | 0.00 | 0.00 | 16 | 1013.1 |
| 20260509175502 | 85 | 167 | 2.0 | 2.0 | 0.00 | 0.00 | 0.00 | 16 | 1013.1 |
| 20260509174959 | 84 | 81 | 2.0 | 5.0 | 0.00 | 0.00 | 0.00 | 17 | 1013.1 |
| 20260509174456 | 83 | 64 | 2.0 | 2.0 | 0.00 | 0.00 | 0.00 | 18 | 1013.3 |
| 20260509173950 | 85 | 205 | 0.0 | 1.0 | 0.00 | 0.00 | 0.00 | 17 | 1013.2 |
| 20260509173445 | 85 | 207 | 2.0 | 2.0 | 0.00 | 0.00 | 0.00 | 17 | 1013.4 |
| 20260509172942 | 85 | 134 | 3.0 | 3.0 | 0.00 | 0.00 | 0.00 | 17 | 1013.2 |
| 20260509172439 | 85 | 222 | 1.0 | 2.0 | 0.00 | 0.00 | 0.00 | 17 | 1013.1 |
| 20260509171934 | 83 | 134 | 1.0 | 2.0 | 0.00 | 0.00 | 0.00 | 18 | 1013.1 |
| 20260509171431 | 84 | 211 | 1.0 | 2.0 | 0.00 | 0.00 | 0.00 | 18 | 1013.4 |
| 20260509170927 | 83 | 195 | 2.0 | 2.0 | 0.00 | 0.00 | 0.00 | 18 | 1013.3 |
| 20260509170423 | 83 | 156 | 3.0 | 5.0 | 0.00 | 0.00 | 0.00 | 18 | 1013.1 |
| 20260509165919 | 83 | 196 | 0.0 | 1.0 | 0.00 | 0.00 | 0.00 | 18 | 1013.1 |
| 20260509165413 | 82 | 231 | 0.0 | 0.0 | 0.00 | 0.00 | 0.00 | 18 | 1013.0 |
| 20260509164909 | 82 | 183 | 2.0 | 2.0 | 0.00 | 0.00 | 0.00 | 18 | 1013.1 |
| 20260509164405 | 81 | 210 | 1.0 | 1.0 | 0.00 | 0.00 | 0.00 | 20 | 1013.2 |
| 20260509163901 | 80 | 94 | 1.0 | 2.0 | 0.00 | 0.00 | 0.00 | 20 | 1013.4 |
| 20260509163358 | 79 | 241 | 0.0 | 1.0 | 0.00 | 0.00 | 0.00 | 20 | 1013.1 |
| 20260509162857 | 80 | 35 | 1.0 | 1.0 | 0.00 | 0.00 | 0.00 | 20 | 1013.3 |
| 20260509162356 | 79 | 242 | 1.0 | 1.0 | 0.00 | 0.00 | 0.00 | 21 | 1013.2 |
| 20260509161852 | 79 | 300 | 1.0 | 2.0 | 0.00 | 0.00 | 0.00 | 23 | 1013.0 |
| 20260509161348 | 79 | 32 | 1.0 | 1.0 | 0.00 | 0.00 | 0.00 | 24 | 1013.0 |
| 20260509160844 | 78 | 44 | 3.0 | 3.0 | 0.00 | 0.00 | 0.00 | 24 | 1012.9 |
| 20260509160340 | 79 | 108 | 3.0 | 3.0 | 0.00 | 0.00 | 0.00 | 21 | 1013.1 |
| 20260509155835 | 78 | 224 | 0.0 | 0.0 | 0.00 | 0.00 | 0.00 | 20 | 1013.2 |
| 20260509155332 | 78 | 134 | 2.0 | 2.0 | 0.00 | 0.00 | 0.00 | 20 | 1013.3 |
| 20260509154828 | 77 | 304 | 2.0 | 2.0 | 0.00 | 0.00 | 0.00 | 20 | 1013.3 |
| 20260509154325 | 77 | 359 | 3.0 | 3.0 | 0.00 | 0.00 | 0.00 | 21 | 1013.2 |
| 20260509153822 | 77 | 232 | 2.0 | 2.0 | 0.00 | 0.00 | 0.00 | 20 | 1013.2 |
| 20260509153318 | 76 | 355 | 3.0 | 3.0 | 0.00 | 0.00 | 0.00 | 21 | 1013.2 |
| 20260509152815 | 78 | 322 | 3.0 | 3.0 | 0.00 | 0.00 | 0.00 | 22 | 1013.3 |
| 20260509152311 | 76 | 219 | 0.0 | 0.0 | 0.00 | 0.00 | 0.00 | 24 | 1013.4 |
| 20260509151809 | 76 | 251 | 1.0 | 1.0 | 0.00 | 0.00 | 0.00 | 26 | 1013.4 |
| 20260509151305 | 76 | 275 | 2.0 | 2.0 | 0.00 | 0.00 | 0.00 | 25 | 1013.3 |
| 20260509150804 | 75 | 95 | 1.0 | 2.0 | 0.00 | 0.00 | 0.00 | 28 | 1013.1 |
| 20260509150301 | 73 | 216 | 1.0 | 1.0 | 0.00 | 0.00 | 0.00 | 27 | 1013.1 |
| 20260509145758 | 73 | 214 | 3.0 | 3.0 | 0.00 | 0.00 | 0.00 | 30 | 1013.3 |
| 20260509145257 | 73 | 200 | 3.0 | 3.0 | 0.00 | 0.00 | 0.00 | 31 | 1013.2 |
| 20260509144754 | 72 | 203 | 2.0 | 2.0 | 0.00 | 0.00 | 0.00 | 31 | 1013.5 |
| 20260509144251 | 71 | 206 | 1.0 | 1.0 | 0.00 | 0.00 | 0.00 | 33 | 1013.5 |
| 20260509143748 | 71 | 193 | 1.0 | 2.0 | 0.00 | 0.00 | 0.00 | 32 | 1013.6 |
| 20260509143246 | 70 | 209 | 1.0 | 1.0 | 0.00 | 0.00 | 0.00 | 35 | 1013.8 |
| 20260509142742 | 69 | 213 | 1.0 | 1.0 | 0.00 | 0.00 | 0.00 | 40 | 1013.5 |
| 20260509142238 | 68 | 213 | 1.0 | 1.0 | 0.00 | 0.00 | 0.00 | 32 | 1013.5 |
| 20260509141734 | 67 | 232 | 0.0 | 1.0 | 0.00 | 0.00 | 0.00 | 40 | 1013.4 |
| 20260509141231 | 66 | 193 | 2.0 | 2.0 | 0.00 | 0.00 | 0.00 | 39 | 1013.8 |
| 20260509140728 | 65 | 223 | 1.0 | 1.0 | 0.00 | 0.00 | 0.00 | 37 | 1013.5 |
| 20260509140225 | 64 | 240 | 1.0 | 1.0 | 0.00 | 0.00 | 0.00 | 39 | 1013.6 |
| 20260509135722 | 64 | 202 | 2.0 | 2.0 | 0.00 | 0.00 | 0.00 | 38 | 1013.3 |
| 20260509135220 | 64 | 219 | 0.0 | 0.0 | 0.00 | 0.00 | 0.00 | 38 | 1013.6 |
| 20260509134717 | 63 | 233 | 2.0 | 2.0 | 0.00 | 0.00 | 0.00 | 38 | 1013.4 |
| 20260509134214 | 63 | 225 | 1.0 | 2.0 | 0.00 | 0.00 | 0.00 | 37 | 1013.4 |
| 20260509133711 | 62 | 221 | 1.0 | 2.0 | 0.00 | 0.00 | 0.00 | 38 | 1013.3 |
| 20260509133208 | 62 | 210 | 2.0 | 2.0 | 0.00 | 0.00 | 0.00 | 38 | 1013.2 |
| 20260509132707 | 61 | 225 | 1.0 | 1.0 | 0.00 | 0.00 | 0.00 | 38 | 1013.2 |
| 20260509132205 | 61 | 225 | 1.0 | 1.0 | 0.00 | 0.00 | 0.00 | 40 | 1013.3 |
| 20260509131701 | 60 | 234 | 1.0 | 1.0 | 0.00 | 0.00 | 0.00 | 37 | 1013.1 |
| 20260509131158 | 60 | 255 | 1.0 | 2.0 | 0.00 | 0.00 | 0.00 | 39 | 1013.1 |
| 20260509130653 | 60 | 226 | 2.0 | 2.0 | 0.00 | 0.00 | 0.00 | 39 | 1012.9 |
| 20260509130150 | 60 | 234 | 2.0 | 2.0 | 0.00 | 0.00 | 0.00 | 39 | 1012.9 |
| 20260509125647 | 60 | 235 | 1.0 | 2.0 | 0.00 | 0.00 | 0.00 | 40 | 1013.0 |
| 20260509125143 | 60 | 258 | 2.0 | 2.0 | 0.00 | 0.00 | 0.00 | 40 | 1012.8 |
| 20260509124640 | 62 | 235 | 0.0 | 0.0 | 0.00 | 0.00 | 0.00 | 38 | 1012.7 |
| 20260509124137 | 61 | 190 | 3.0 | 3.0 | 0.00 | 0.00 | 0.00 | 37 | 1012.8 |
| 20260509123635 | 60 | 225 | 3.0 | 3.0 | 0.00 | 0.00 | 0.00 | 38 | 1012.8 |
| 20260509123131 | 60 | 211 | 1.0 | 1.0 | 0.00 | 0.00 | 0.00 | 41 | 1012.7 |
| 20260509122627 | 60 | 209 | 2.0 | 2.0 | 0.00 | 0.00 | 0.00 | 42 | 1012.8 |
| 20260509122124 | 60 | 202 | 1.0 | 1.0 | 0.00 | 0.00 | 0.00 | 42 | 1012.6 |
| 20260509121621 | 60 | 227 | 0.0 | 0.0 | 0.00 | 0.00 | 0.00 | 42 | 1012.6 |
| 20260509121119 | 60 | 196 | 2.0 | 2.0 | 0.00 | 0.00 | 0.00 | 40 | 1012.6 |
| 20260509120617 | 60 | 212 | 1.0 | 1.0 | 0.00 | 0.00 | 0.00 | 42 | 1012.8 |
| 20260509120115 | 60 | 208 | 1.0 | 1.0 | 0.00 | 0.00 | 0.00 | 42 | 1012.6 |
| 20260509115612 | 60 | 200 | 1.0 | 2.0 | 0.00 | 0.00 | 0.00 | 42 | 1012.6 |
| 20260509115109 | 60 | 212 | 1.0 | 1.0 | 0.00 | 0.00 | 0.00 | 40 | 1012.6 |
| 20260509114607 | 60 | 195 | 1.0 | 2.0 | 0.00 | 0.00 | 0.00 | 41 | 1012.8 |
| 20260509114106 | 61 | 220 | 0.0 | 0.0 | 0.00 | 0.00 | 0.00 | 40 | 1012.6 |
| 20260509113604 | 63 | 172 | 2.0 | 2.0 | 0.00 | 0.00 | 0.00 | 37 | 1012.8 |
| 20260509113101 | 64 | 182 | 2.0 | 2.0 | 0.00 | 0.00 | 0.00 | 34 | 1012.5 |
| 20260509112557 | 63 | 204 | 2.0 | 2.0 | 0.00 | 0.00 | 0.00 | 35 | 1012.6 |
| 20260509112054 | 63 | 195 | 2.0 | 2.0 | 0.00 | 0.00 | 0.00 | 37 | 1012.7 |
| 20260509111552 | 63 | 150 | 2.0 | 2.0 | 0.00 | 0.00 | 0.00 | 35 | 1012.5 |
| 20260509111048 | 63 | 189 | 1.0 | 2.0 | 0.00 | 0.00 | 0.00 | 36 | 1012.6 |
| 20260509110545 | 64 | 183 | 2.0 | 2.0 | 0.00 | 0.00 | 0.00 | 35 | 1012.6 |
| 20260509110042 | 63 | 215 | 1.0 | 1.0 | 0.00 | 0.00 | 0.00 | 36 | 1012.5 |
| 20260509105541 | 63 | 208 | 3.0 | 3.0 | 0.00 | 0.00 | 0.00 | 37 | 1012.6 |
| 20260509105038 | 62 | 185 | 3.0 | 3.0 | 0.00 | 0.00 | 0.00 | 38 | 1012.8 |
| 20260509104535 | 62 | 182 | 2.0 | 3.0 | 0.00 | 0.00 | 0.00 | 38 | 1012.8 |
| 20260509104032 | 63 | 178 | 3.0 | 3.0 | 0.00 | 0.00 | 0.00 | 37 | 1012.7 |
| 20260509103529 | 64 | 195 | 2.0 | 2.0 | 0.00 | 0.00 | 0.00 | 35 | 1012.9 |
| 20260509103028 | 66 | 119 | 2.0 | 2.0 | 0.00 | 0.00 | 0.00 | 33 | 1012.7 |
| 20260509102524 | 66 | 198 | 1.0 | 2.0 | 0.00 | 0.00 | 0.00 | 31 | 1012.6 |
| 20260509102021 | 68 | 218 | 0.0 | 0.0 | 0.00 | 0.00 | 0.00 | 29 | 1012.5 |
| 20260509101518 | 68 | 237 | 0.0 | 0.0 | 0.00 | 0.00 | 0.00 | 28 | 1012.6 |
| 20260509101015 | 69 | 215 | 1.0 | 2.0 | 0.00 | 0.00 | 0.00 | 27 | 1012.7 |
| 20260509100512 | 70 | 228 | 3.0 | 3.0 | 0.00 | 0.00 | 0.00 | 26 | 1012.6 |
| 20260509100009 | 71 | 247 | 7.0 | 8.0 | 0.00 | 0.00 | 0.00 | 25 | 1012.6 |
| 20260509095505 | 70 | 244 | 3.0 | 5.0 | 0.00 | 0.00 | 0.00 | 25 | 1012.4 |
| 20260509095003 | 70 | 275 | 3.0 | 3.0 | 0.00 | 0.00 | 0.00 | 26 | 1012.7 |
| 20260509094459 | 71 | 226 | 3.0 | 3.0 | 0.00 | 0.00 | 0.00 | 25 | 1012.6 |
| 20260509093956 | 71 | 268 | 5.0 | 6.0 | 0.00 | 0.00 | 0.00 | 26 | 1012.7 |
| 20260509093454 | 71 | 253 | 6.0 | 8.0 | 0.00 | 0.00 | 0.00 | 25 | 1012.6 |
| 20260509092951 | 71 | 312 | 5.0 | 6.0 | 0.00 | 0.00 | 0.00 | 26 | 1012.7 |
| 20260509092449 | 71 | 265 | 5.0 | 7.0 | 0.00 | 0.00 | 0.00 | 26 | 1012.6 |
| 20260509091948 | 70 | 265 | 7.0 | 7.0 | 0.00 | 0.00 | 0.00 | 26 | 1013.0 |
| 20260509091438 | 70 | 298 | 3.0 | 6.0 | 0.00 | 0.00 | 0.00 | 26 | 1012.8 |
| 20260509090936 | 70 | 298 | 5.0 | 7.0 | 0.00 | 0.00 | 0.00 | 26 | 1012.9 |
| 20260509090433 | 71 | 243 | 3.0 | 5.0 | 0.00 | 0.00 | 0.00 | 26 | 1012.7 |
| 20260509085931 | 71 | 276 | 6.0 | 8.0 | 0.00 | 0.00 | 0.00 | 25 | 1013.1 |
| 20260509085427 | 71 | 261 | 4.0 | 6.0 | 0.00 | 0.00 | 0.00 | 26 | 1013.0 |
| 20260509084923 | 70 | 312 | 3.0 | 6.0 | 0.00 | 0.00 | 0.00 | 27 | 1012.7 |
| 20260509084420 | 71 | 276 | 3.0 | 3.0 | 0.00 | 0.00 | 0.00 | 26 | 1012.9 |
| 20260509083918 | 72 | 252 | 4.0 | 5.0 | 0.00 | 0.00 | 0.00 | 26 | 1013.0 |
| 20260509083415 | 72 | 264 | 4.0 | 5.0 | 0.00 | 0.00 | 0.00 | 25 | 1013.3 |
| 20260509082912 | 72 | 272 | 6.0 | 8.0 | 0.00 | 0.00 | 0.00 | 26 | 1013.0 |
| 20260509082409 | 72 | 272 | 7.0 | 9.0 | 0.00 | 0.00 | 0.00 | 26 | 1012.9 |
| 20260509081906 | 72 | 264 | 7.0 | 9.0 | 0.00 | 0.00 | 0.00 | 26 | 1012.9 |
| 20260509081403 | 72 | 265 | 10.0 | 11.0 | 0.00 | 0.00 | 0.00 | 27 | 1013.3 |
| 20260509080900 | 71 | 231 | 7.0 | 9.0 | 0.00 | 0.00 | 0.00 | 27 | 1013.1 |
| 20260509080358 | 72 | 272 | 5.0 | 6.0 | 0.00 | 0.00 | 0.00 | 27 | 1013.0 |
| 20260509075857 | 72 | 282 | 4.0 | 5.0 | 0.00 | 0.00 | 0.00 | 27 | 1013.4 |
| 20260509075353 | 73 | 276 | 7.0 | 9.0 | 0.00 | 0.00 | 0.00 | 26 | 1013.1 |
| 20260509074850 | 73 | 281 | 9.0 | 11.0 | 0.00 | 0.00 | 0.00 | 26 | 1013.1 |
| 20260509074348 | 73 | 272 | 6.0 | 7.0 | 0.00 | 0.00 | 0.00 | 26 | 1013.2 |
| 20260509073844 | 73 | 234 | 11.0 | 14.0 | 0.00 | 0.00 | 0.00 | 26 | 1013.1 |
| 20260509073341 | 73 | 267 | 7.0 | 9.0 | 0.00 | 0.00 | 0.00 | 27 | 1013.4 |
| 20260509072837 | 73 | 265 | 9.0 | 10.0 | 0.00 | 0.00 | 0.00 | 28 | 1013.3 |
| 20260509072334 | 73 | 262 | 8.0 | 11.0 | 0.00 | 0.00 | 0.00 | 28 | 1013.4 |
| 20260509071830 | 73 | 266 | 8.0 | 10.0 | 0.00 | 0.00 | 0.00 | 28 | 1013.4 |
| 20260509071328 | 73 | 273 | 9.0 | 10.0 | 0.00 | 0.00 | 0.00 | 28 | 1013.5 |
| 20260509070825 | 73 | 243 | 8.0 | 10.0 | 0.00 | 0.00 | 0.00 | 28 | 1013.4 |
| 20260509070321 | 73 | 263 | 9.0 | 10.0 | 0.00 | 0.00 | 0.00 | 28 | 1013.3 |
| 20260509065818 | 73 | 271 | 13.0 | 15.0 | 0.00 | 0.00 | 0.00 | 28 | 1013.5 |
| 20260509065314 | 73 | 259 | 7.0 | 8.0 | 0.00 | 0.00 | 0.00 | 28 | 1013.2 |
| 20260509064810 | 73 | 278 | 9.0 | 11.0 | 0.00 | 0.00 | 0.00 | 29 | 1013.6 |
| 20260509064308 | 73 | 283 | 7.0 | 9.0 | 0.00 | 0.00 | 0.00 | 29 | 1013.5 |
| 20260509063805 | 73 | 262 | 9.0 | 13.0 | 0.00 | 0.00 | 0.00 | 29 | 1013.4 |
| 20260509063301 | 73 | 284 | 9.0 | 10.0 | 0.00 | 0.00 | 0.00 | 29 | 1013.6 |
| 20260509062758 | 74 | 278 | 11.0 | 14.0 | 0.00 | 0.00 | 0.00 | 28 | 1013.6 |
| 20260509062255 | 74 | 292 | 12.0 | 14.0 | 0.00 | 0.00 | 0.00 | 28 | 1013.6 |
| 20260509061752 | 74 | 294 | 5.0 | 7.0 | 0.00 | 0.00 | 0.00 | 29 | 1013.4 |
| 20260509061250 | 73 | 263 | 9.0 | 13.0 | 0.00 | 0.00 | 0.00 | 30 | 1013.3 |
| 20260509060747 | 73 | 267 | 8.0 | 9.0 | 0.00 | 0.00 | 0.00 | 31 | 1013.8 |
| 20260509060244 | 73 | 270 | 14.0 | 17.0 | 0.00 | 0.00 | 0.00 | 32 | 1013.6 |
| 20260509055739 | 73 | 265 | 7.0 | 9.0 | 0.00 | 0.00 | 0.00 | 33 | 1013.5 |
| 20260509055235 | 73 | 280 | 7.0 | 7.0 | 0.00 | 0.00 | 0.00 | 34 | 1013.9 |
| 20260509054732 | 73 | 268 | 9.0 | 10.0 | 0.00 | 0.00 | 0.00 | 34 | 1013.9 |
| 20260509054229 | 73 | 261 | 6.0 | 7.0 | 0.00 | 0.00 | 0.00 | 35 | 1013.6 |
| 20260509053728 | 73 | 225 | 6.0 | 8.0 | 0.00 | 0.00 | 0.00 | 35 | 1013.6 |
| 20260509053224 | 73 | 270 | 6.0 | 8.0 | 0.00 | 0.00 | 0.00 | 36 | 1013.6 |
| 20260509052722 | 73 | 260 | 7.0 | 8.0 | 0.00 | 0.00 | 0.00 | 36 | 1013.5 |
| 20260509052219 | 73 | 270 | 8.0 | 10.0 | 0.00 | 0.00 | 0.00 | 36 | 1013.8 |
| 20260509051717 | 73 | 258 | 7.0 | 10.0 | 0.00 | 0.00 | 0.00 | 37 | 1013.8 |
| 20260509051215 | 73 | 251 | 9.0 | 10.0 | 0.00 | 0.00 | 0.00 | 37 | 1013.3 |
| 20260509050712 | 73 | 264 | 8.0 | 9.0 | 0.00 | 0.00 | 0.00 | 38 | 1013.8 |
| 20260509050208 | 73 | 218 | 6.0 | 7.0 | 0.00 | 0.00 | 0.00 | 39 | 1013.9 |
| 20260509045705 | 73 | 250 | 7.0 | 7.0 | 0.00 | 0.00 | 0.00 | 38 | 1014.0 |
| 20260509045202 | 73 | 257 | 7.0 | 10.0 | 0.00 | 0.00 | 0.00 | 38 | 1013.8 |
| 20260509044659 | 73 | 258 | 7.0 | 9.0 | 0.00 | 0.00 | 0.00 | 38 | 1013.6 |
| 20260509044157 | 74 | 253 | 6.0 | 9.0 | 0.00 | 0.00 | 0.00 | 38 | 1013.4 |
| 20260509043653 | 73 | 256 | 14.0 | 16.0 | 0.00 | 0.00 | 0.00 | 39 | 1013.5 |
| 20260509043149 | 73 | 260 | 6.0 | 7.0 | 0.00 | 0.00 | 0.00 | 39 | 1013.6 |
| 20260509042646 | 74 | 272 | 10.0 | 13.0 | 0.00 | 0.00 | 0.00 | 37 | 1013.4 |
| 20260509042141 | 73 | 267 | 8.0 | 9.0 | 0.00 | 0.00 | 0.00 | 39 | 1013.5 |
| 20260509041638 | 73 | 255 | 4.0 | 5.0 | 0.00 | 0.00 | 0.00 | 41 | 1013.3 |
| 20260509041136 | 73 | 272 | 5.0 | 6.0 | 0.00 | 0.00 | 0.00 | 40 | 1013.1 |
| 20260509040634 | 73 | 268 | 7.0 | 8.0 | 0.00 | 0.00 | 0.00 | 42 | 1013.1 |
| 20260509040131 | 73 | 259 | 6.0 | 7.0 | 0.00 | 0.00 | 0.00 | 42 | 1013.2 |
| 20260509035628 | 73 | 271 | 9.0 | 9.0 | 0.00 | 0.00 | 0.00 | 42 | 1013.1 |
| 20260509035124 | 74 | 266 | 9.0 | 10.0 | 0.00 | 0.00 | 0.00 | 43 | 1013.1 |
| 20260509034622 | 74 | 243 | 8.0 | 9.0 | 0.00 | 0.00 | 0.00 | 43 | 1012.9 |
| 20260509034119 | 74 | 239 | 4.0 | 5.0 | 0.00 | 0.00 | 0.00 | 44 | 1013.1 |
| 20260509033616 | 74 | 226 | 7.0 | 8.0 | 0.00 | 0.00 | 0.00 | 46 | 1012.8 |
| 20260509033113 | 74 | 247 | 6.0 | 8.0 | 0.00 | 0.00 | 0.00 | 46 | 1013.2 |
| 20260509032610 | 74 | 269 | 9.0 | 10.0 | 0.00 | 0.00 | 0.00 | 44 | 1013.0 |
| 20260509032107 | 74 | 240 | 8.0 | 9.0 | 0.00 | 0.00 | 0.00 | 47 | 1012.9 |
| 20260509031605 | 74 | 264 | 6.0 | 7.0 | 0.00 | 0.00 | 0.00 | 46 | 1013.0 |
| 20260509031102 | 75 | 283 | 7.0 | 8.0 | 0.00 | 0.00 | 0.00 | 45 | 1012.9 |
| 20260509030600 | 75 | 231 | 7.0 | 8.0 | 0.00 | 0.00 | 0.00 | 46 | 1012.8 |
| 20260509030056 | 75 | 248 | 8.0 | 9.0 | 0.00 | 0.00 | 0.00 | 45 | 1012.6 |
| 20260509025553 | 76 | 263 | 7.0 | 7.0 | 0.00 | 0.00 | 0.00 | 42 | 1012.6 |
| 20260509025048 | 76 | 242 | 9.0 | 9.0 | 0.00 | 0.00 | 0.00 | 41 | 1012.7 |
| 20260509024544 | 76 | 243 | 4.0 | 5.0 | 0.00 | 0.00 | 0.00 | 44 | 1012.5 |
| 20260509024041 | 76 | 275 | 9.0 | 11.0 | 0.00 | 0.00 | 0.00 | 40 | 1012.5 |
| 20260509023539 | 76 | 234 | 9.0 | 9.0 | 0.00 | 0.00 | 0.00 | 46 | 1012.5 |
| 20260509023035 | 77 | 271 | 6.0 | 8.0 | 0.00 | 0.00 | 0.00 | 45 | 1012.4 |
| 20260509022532 | 77 | 269 | 8.0 | 10.0 | 0.00 | 0.00 | 0.00 | 44 | 1012.1 |
| 20260509022030 | 78 | 256 | 5.0 | 5.0 | 0.00 | 0.00 | 0.00 | 43 | 1012.2 |
| 20260509021526 | 78 | 302 | 7.0 | 8.0 | 0.00 | 0.00 | 0.00 | 42 | 1012.1 |
| 20260509021023 | 79 | 262 | 4.0 | 6.0 | 0.00 | 0.00 | 0.00 | 38 | 1012.5 |
| 20260509020522 | 79 | 275 | 6.0 | 7.0 | 0.00 | 0.00 | 0.00 | 38 | 1012.4 |
| 20260509020018 | 80 | 246 | 6.0 | 7.0 | 0.00 | 0.00 | 0.00 | 36 | 1012.2 |
| 20260509015517 | 80 | 261 | 5.0 | 7.0 | 0.00 | 0.00 | 0.00 | 35 | 1012.4 |
| 20260509015014 | 80 | 280 | 12.0 | 14.0 | 0.00 | 0.00 | 0.00 | 33 | 1012.1 |
| 20260509014511 | 81 | 269 | 16.0 | 18.0 | 0.00 | 0.00 | 0.00 | 30 | 1012.0 |
| 20260509014007 | 81 | 268 | 10.0 | 14.0 | 0.00 | 0.00 | 0.00 | 34 | 1012.4 |
| 20260509013504 | 81 | 280 | 8.0 | 11.0 | 0.00 | 0.00 | 0.00 | 33 | 1012.1 |
| 20260509012959 | 81 | 150 | 9.0 | 10.0 | 0.00 | 0.00 | 0.00 | 32 | 1012.1 |
| 20260509012456 | 82 | 257 | 9.0 | 10.0 | 0.00 | 0.00 | 0.00 | 31 | 1012.1 |
| 20260509011953 | 82 | 279 | 10.0 | 11.0 | 0.00 | 0.00 | 0.00 | 31 | 1012.2 |
| 20260509011451 | 82 | 333 | 9.0 | 10.0 | 0.00 | 0.00 | 0.00 | 32 | 1012.2 |
| 20260509010948 | 82 | 260 | 13.0 | 15.0 | 0.00 | 0.00 | 0.00 | 32 | 1012.0 |
| 20260509010445 | 82 | 276 | 13.0 | 15.0 | 0.00 | 0.00 | 0.00 | 33 | 1012.1 |
| 20260509005936 | 82 | 245 | 9.0 | 13.0 | 0.00 | 0.00 | 0.00 | 33 | 1012.2 |
| 20260509005435 | 82 | 281 | 11.0 | 13.0 | 0.00 | 0.00 | 0.00 | 33 | 1012.1 |
| 20260509004934 | 83 | 268 | 9.0 | 9.0 | 0.00 | 0.00 | 0.00 | 33 | 1012.0 |
| 20260509004431 | 83 | 287 | 9.0 | 11.0 | 0.00 | 0.00 | 0.00 | 34 | 1012.0 |
| 20260509003929 | 82 | 269 | 12.0 | 16.0 | 0.00 | 0.00 | 0.00 | 34 | 1012.2 |
| 20260509003427 | 82 | 268 | 13.0 | 15.0 | 0.00 | 0.00 | 0.00 | 34 | 1012.0 |
| 20260509002923 | 82 | 268 | 9.0 | 10.0 | 0.00 | 0.00 | 0.00 | 34 | 1012.2 |
| 20260509002422 | 83 | 268 | 14.0 | 15.0 | 0.00 | 0.00 | 0.00 | 34 | 1012.1 |
| 20260509001918 | 83 | 218 | 9.0 | 10.0 | 0.00 | 0.00 | 0.00 | 34 | 1011.9 |
| 20260509001415 | 83 | 233 | 11.0 | 14.0 | 0.00 | 0.00 | 0.00 | 34 | 1012.2 |
| 20260509000912 | 83 | 241 | 11.0 | 13.0 | 0.00 | 0.00 | 0.00 | 33 | 1012.4 |
| 20260509000410 | 83 | 268 | 10.0 | 13.0 | 0.00 | 0.00 | 0.00 | 34 | 1012.2 |
| 20260508235905 | 83 | 257 | 12.0 | 15.0 | 0.00 | 0.00 | 0.00 | 34 | 1012.1 |
| 20260508235403 | 84 | 260 | 14.0 | 16.0 | 0.00 | 0.00 | 0.00 | 33 | 1012.1 |
| 20260508234900 | 84 | 241 | 11.0 | 13.0 | 0.00 | 0.00 | 0.00 | 33 | 1012.1 |
| 20260508234356 | 84 | 250 | 11.0 | 13.0 | 0.00 | 0.00 | 0.00 | 33 | 1012.1 |
| 20260508233855 | 84 | 242 | 12.0 | 14.0 | 0.00 | 0.00 | 0.00 | 33 | 1012.4 |
| 20260508233354 | 84 | 250 | 9.0 | 13.0 | 0.00 | 0.00 | 0.00 | 33 | 1012.0 |
| 20260508232850 | 85 | 205 | 8.0 | 9.0 | 0.00 | 0.00 | 0.00 | 32 | 1012.5 |
| 20260508232346 | 85 | 276 | 11.0 | 15.0 | 0.00 | 0.00 | 0.00 | 33 | 1012.5 |
| 20260508231845 | 85 | 274 | 10.0 | 11.0 | 0.00 | 0.00 | 0.00 | 33 | 1012.6 |